| time (UTC) | temp C | wind direction | speed KPH | gust KPH | rain 1hr cm | rain 24hr cm | rain mn cm | humidity % | barometer mb |
| 20260508122924 | 16 | 337 | 8.0 | 8.0 | 0.00 | 0.00 | 0.03 | 60 | 999.6 |
| 20260508122419 | 16 | 337 | 1.6 | 4.8 | 0.00 | 0.00 | 0.03 | 59 | 999.6 |
| 20260508121929 | 16 | 337 | 3.2 | 11.3 | 0.00 | 0.00 | 0.03 | 57 | 999.8 |
| 20260508121402 | 16 | 337 | 8.0 | 16.1 | 0.00 | 0.00 | 0.03 | 55 | 999.8 |
| 20260508120929 | 16 | 337 | 4.8 | 16.1 | 0.00 | 0.00 | 0.03 | 53 | 999.8 |
| 20260508120356 | 17 | 337 | 6.4 | 14.5 | 0.00 | 0.00 | 0.03 | 54 | 999.8 |
| 20260508115902 | 17 | 337 | 1.6 | 19.3 | 0.00 | 0.00 | 0.03 | 53 | 999.9 |
| 20260508115409 | 16 | 337 | 8.0 | 14.5 | 0.00 | 0.00 | 0.03 | 54 | 1000.0 |
| 20260508114849 | 16 | 337 | 9.7 | 14.5 | 0.00 | 0.00 | 0.03 | 55 | 1000.0 |
| 20260508114343 | 16 | 337 | 9.7 | 9.7 | 0.00 | 0.00 | 0.03 | 57 | 1000.1 |
| 20260508113902 | 16 | 337 | 3.2 | 8.0 | 0.00 | 0.00 | 0.03 | 60 | 1000.1 |
| 20260508113337 | 16 | 337 | 1.6 | 6.4 | 0.00 | 0.00 | 0.03 | 61 | 1000.3 |
| 20260508112843 | 16 | 337 | 3.2 | 6.4 | 0.00 | 0.00 | 0.03 | 62 | 1000.3 |
| 20260508112351 | 15 | 337 | 3.2 | 8.0 | 0.00 | 0.00 | 0.03 | 63 | 1000.4 |
| 20260508111837 | 15 | 337 | 4.8 | 9.7 | 0.00 | 0.00 | 0.03 | 61 | 1000.5 |
| 20260508111331 | 15 | 337 | 4.8 | 11.3 | 0.00 | 0.00 | 0.03 | 63 | 1000.5 |
| 20260508110845 | 15 | 337 | 4.8 | 6.4 | 0.00 | 0.00 | 0.03 | 62 | 1000.5 |
| 20260508110310 | 16 | 337 | 6.4 | 9.7 | 0.00 | 0.00 | 0.03 | 61 | 1000.6 |
| 20260508105829 | 15 | 337 | 1.6 | 8.0 | 0.00 | 0.00 | 0.03 | 65 | 1000.7 |
| 20260508105336 | 15 | 337 | 1.6 | 9.7 | 0.00 | 0.00 | 0.00 | 70 | 1000.7 |
| 20260508104818 | 14 | 225 | 6.4 | 9.7 | 0.00 | 0.00 | 0.00 | 74 | 1000.7 |
| 20260508104313 | 14 | 225 | 6.4 | 6.4 | 0.00 | 0.00 | 0.00 | 71 | 1000.8 |
| 20260508103841 | 15 | 225 | 4.8 | 9.7 | 0.00 | 0.00 | 0.00 | 71 | 1000.9 |
| 20260508103258 | 15 | 225 | 6.4 | 6.4 | 0.00 | 0.00 | 0.00 | 69 | 1000.9 |
| 20260508102827 | 15 | 337 | 0.0 | 8.0 | 0.00 | 0.00 | 0.00 | 65 | 1000.8 |
| 20260508101801 | 14 | 337 | 1.6 | 8.0 | 0.00 | 0.00 | 0.00 | 80 | 1001.0 |
| 20260508101245 | 14 | 337 | 3.2 | 4.8 | 0.00 | 0.00 | 0.00 | 75 | 1001.0 |
| 20260508100239 | 15 | 225 | 1.6 | 9.7 | 0.00 | 0.00 | 0.00 | 72 | 1001.1 |
| 20260508095752 | 15 | 337 | 4.8 | 9.7 | 0.00 | 0.00 | 0.00 | 79 | 1000.9 |
| 20260508093752 | 13 | 337 | 8.0 | 9.7 | 0.00 | 0.00 | 0.00 | 92 | 1001.1 |
| 20260508093220 | 13 | 337 | 4.8 | 9.7 | 0.00 | 0.00 | 0.00 | 97 | 1001.2 |
| 20260508092236 | 13 | 337 | 1.6 | 12.9 | 0.00 | 0.00 | 0.00 | 100 | 1001.2 |
| 20260508091752 | 13 | 225 | 4.8 | 9.7 | 0.00 | 0.00 | 0.00 | 100 | 1001.2 |
| 20260508091201 | 13 | 337 | 6.4 | 29.0 | 0.00 | 0.00 | 0.00 | 100 | 1001.2 |
| 20260508090745 | 12 | 337 | 9.7 | 12.9 | 0.00 | 0.00 | 0.00 | 100 | 1001.2 |
| 20260508090200 | 12 | 337 | 4.8 | 11.3 | 0.00 | 0.00 | 0.00 | 100 | 1001.2 |
| 20260508085705 | 12 | 337 | 1.6 | 3.2 | 0.00 | 0.00 | 0.00 | 100 | 1001.3 |
| 20260508085221 | 12 | 337 | 1.6 | 3.2 | 0.00 | 0.00 | 0.00 | 100 | 1001.3 |
| 20260508084714 | 12 | 337 | 1.6 | 4.8 | 0.00 | 0.00 | 0.00 | 100 | 1001.2 |
| 20260508084147 | 12 | 225 | 0.0 | 3.2 | 0.00 | 0.00 | 0.00 | 100 | 1001.3 |
| 20260508083657 | 12 | 225 | 0.0 | 4.8 | 0.00 | 0.00 | 0.00 | 100 | 1001.2 |
| 20260508083141 | 12 | 225 | 1.6 | 3.2 | 0.00 | 0.00 | 0.00 | 100 | 1001.2 |
| 20260508082710 | 12 | 337 | 0.0 | 4.8 | 0.00 | 0.00 | 0.00 | 100 | 1001.1 |
| 20260508001211 | 8 | 225 | 0.0 | 4.8 | 0.00 | 0.00 | 0.00 | 100 | 1000.1 |
| 20260508000630 | 8 | 225 | 1.6 | 3.2 | 0.00 | 0.00 | 0.00 | 100 | 1000.2 |
| 20260508000121 | 8 | 225 | 1.6 | 3.2 | 0.00 | 0.00 | 0.00 | 100 | 1000.3 |
| 20260507235116 | 8 | 225 | 1.6 | 3.2 | 0.00 | 0.00 | 0.00 | 100 | 1000.3 |
| 20260507234608 | 8 | 225 | 1.6 | 3.2 | 0.00 | 0.00 | 0.00 | 100 | 1000.3 |
| 20260507233610 | 8 | 225 | 0.0 | 3.2 | 0.00 | 0.00 | 0.00 | 100 | 1000.5 |
| 20260507233102 | 9 | 225 | 1.6 | 3.2 | 0.00 | 0.00 | 0.00 | 100 | 1000.6 |
| 20260507232630 | 9 | 225 | 4.8 | 4.8 | 0.00 | 0.00 | 0.00 | 100 | 1000.6 |
| 20260507232106 | 9 | 225 | 3.2 | 3.2 | 0.00 | 0.00 | 0.00 | 100 | 1000.5 |
| 20260507231549 | 9 | 225 | 0.0 | 3.2 | 0.00 | 0.00 | 0.00 | 100 | 1000.7 |
| 20260507230536 | 10 | 225 | 1.6 | 1.6 | 0.00 | 0.00 | 0.00 | 100 | 1000.7 |
| 20260507230101 | 10 | 225 | 0.0 | 1.6 | 0.00 | 0.00 | 0.00 | 100 | 1000.8 |
| 20260507225042 | 9 | 225 | 1.6 | 3.2 | 0.00 | 0.00 | 0.03 | 100 | 1001.0 |
| 20260507224530 | 9 | 225 | 3.2 | 3.2 | 0.00 | 0.00 | 0.03 | 100 | 1001.0 |
| 20260507224059 | 9 | 225 | 3.2 | 3.2 | 0.00 | 0.00 | 0.03 | 100 | 1001.1 |
| 20260507223517 | 10 | 225 | 1.6 | 3.2 | 0.00 | 0.00 | 0.03 | 100 | 1001.1 |
| 20260507223024 | 10 | 225 | 0.0 | 3.2 | 0.00 | 0.00 | 0.03 | 100 | 1001.1 |
| 20260507222532 | 10 | 225 | 1.6 | 3.2 | 0.00 | 0.00 | 0.03 | 100 | 1001.1 |
| 20260507222022 | 10 | 225 | 1.6 | 1.6 | 0.00 | 0.00 | 0.03 | 100 | 1001.1 |
| 20260507221523 | 10 | 225 | 0.0 | 0.0 | 0.00 | 0.00 | 0.03 | 100 | 1001.3 |
| 20260507221036 | 10 | 225 | 0.0 | 1.6 | 0.00 | 0.00 | 0.03 | 100 | 1001.3 |
| 20260507220512 | 10 | 225 | 0.0 | 3.2 | 0.00 | 0.00 | 0.03 | 100 | 1001.4 |
| 20260507220009 | 10 | 225 | 1.6 | 3.2 | 0.00 | 0.00 | 0.03 | 100 | 1001.4 |
| 20260507215001 | 10 | 225 | 1.6 | 6.4 | 0.00 | 0.00 | 0.03 | 100 | 1001.3 |
| 20260507214445 | 10 | 225 | 1.6 | 3.2 | 0.00 | 0.00 | 0.03 | 100 | 1001.3 |
| 20260507214005 | 10 | 225 | 1.6 | 3.2 | 0.00 | 0.00 | 0.03 | 100 | 1001.3 |
| 20260507213459 | 10 | 225 | 0.0 | 1.6 | 0.00 | 0.00 | 0.03 | 100 | 1001.5 |
| 20260507212952 | 10 | 225 | 0.0 | 3.2 | 0.00 | 0.00 | 0.03 | 100 | 1001.5 |
| 20260507212445 | 10 | 225 | 1.6 | 3.2 | 0.00 | 0.00 | 0.03 | 100 | 1001.5 |
| 20260507211939 | 10 | 225 | 1.6 | 4.8 | 0.00 | 0.00 | 0.00 | 100 | 1001.5 |
| 20260507211426 | 10 | 225 | 3.2 | 3.2 | 0.00 | 0.00 | 0.00 | 100 | 1001.4 |
| 20260507211009 | 10 | 225 | 3.2 | 3.2 | 0.00 | 0.00 | 0.00 | 100 | 1001.4 |
| 20260507210421 | 10 | 337 | 0.0 | 1.6 | 0.00 | 0.00 | 0.00 | 100 | 1001.4 |
| 20260507205948 | 10 | 337 | 1.6 | 3.2 | 0.00 | 0.00 | 0.00 | 100 | 1001.5 |
| 20260507205415 | 10 | 225 | 0.0 | 3.2 | 0.00 | 0.00 | 0.00 | 100 | 1001.4 |
| 20260507204952 | 11 | 337 | 3.2 | 3.2 | 0.00 | 0.00 | 0.00 | 100 | 1001.4 |
| 20260507204409 | 11 | 337 | 1.6 | 1.6 | 0.00 | 0.00 | 0.00 | 100 | 1001.2 |
| 20260507203929 | 11 | 225 | 0.0 | 4.8 | 0.00 | 0.00 | 0.00 | 100 | 1001.2 |
| 20260507203401 | 11 | 225 | 0.0 | 3.2 | 0.00 | 0.00 | 0.00 | 100 | 1001.2 |
| 20260507202918 | 11 | 225 | 0.0 | 1.6 | 0.00 | 0.00 | 0.00 | 100 | 1001.1 |
| 20260507202400 | 12 | 337 | 1.6 | 1.6 | 0.00 | 0.00 | 0.00 | 100 | 1001.0 |
| 20260507201907 | 12 | 225 | 1.6 | 1.6 | 0.00 | 0.00 | 0.00 | 100 | 1001.1 |
| 20260507201350 | 12 | 337 | 0.0 | 0.0 | 0.00 | 0.00 | 0.00 | 100 | 1000.9 |
| 20260507200924 | 12 | 337 | 0.0 | 0.0 | 0.00 | 0.00 | 0.00 | 100 | 1000.9 |
| 20260507200401 | 12 | 225 | 0.0 | 1.6 | 0.00 | 0.00 | 0.00 | 100 | 1000.7 |
| 20260507195859 | 13 | 225 | 0.0 | 1.6 | 0.00 | 0.00 | 0.00 | 100 | 1000.7 |
| 20260507195347 | 13 | 225 | 1.6 | 4.8 | 0.00 | 0.00 | 0.00 | 100 | 1000.7 |
| 20260507194343 | 13 | 225 | 4.8 | 6.4 | 0.00 | 0.00 | 0.00 | 100 | 1000.6 |
| 20260507193842 | 13 | 225 | 1.6 | 6.4 | 0.00 | 0.00 | 0.00 | 100 | 1000.6 |
| 20260507193329 | 13 | 225 | 3.2 | 4.8 | 0.00 | 0.00 | 0.00 | 100 | 1000.5 |
| 20260507192857 | 13 | 225 | 1.6 | 8.0 | 0.00 | 0.00 | 0.00 | 100 | 1000.5 |
| 20260507192321 | 13 | 225 | 1.6 | 8.0 | 0.00 | 0.00 | 0.00 | 100 | 1000.5 |
| 20260507191833 | 13 | 225 | 4.8 | 8.0 | 0.00 | 0.00 | 0.00 | 100 | 1000.4 |
| 20260507191315 | 13 | 337 | 3.2 | 9.7 | 0.00 | 0.00 | 0.00 | 99 | 1000.5 |
| 20260507190845 | 13 | 225 | 3.2 | 9.7 | 0.00 | 0.00 | 0.00 | 98 | 1000.5 |
| 20260507190308 | 13 | 337 | 9.7 | 9.7 | 0.00 | 0.00 | 0.00 | 96 | 1000.5 |
| 20260507185832 | 13 | 337 | 1.6 | 6.4 | 0.00 | 0.00 | 0.00 | 94 | 1000.5 |
| 20260507185255 | 14 | 337 | 4.8 | 11.3 | 0.00 | 0.00 | 0.00 | 93 | 1000.4 |
| 20260507184826 | 14 | 225 | 0.0 | 4.8 | 0.00 | 0.00 | 0.00 | 91 | 1000.4 |
| 20260507184302 | 14 | 225 | 3.2 | 6.4 | 0.00 | 0.00 | 0.00 | 90 | 1000.3 |
| 20260507183822 | 14 | 225 | 0.0 | 16.1 | 0.00 | 0.00 | 0.00 | 89 | 1000.2 |
| 20260507183244 | 14 | 337 | 4.8 | 11.3 | 0.00 | 0.00 | 0.00 | 87 | 1000.1 |
| 20260507182239 | 14 | 225 | 6.4 | 19.3 | 0.00 | 0.00 | 0.00 | 84 | 999.9 |
| 20260507181759 | 15 | 225 | 6.4 | 16.1 | 0.00 | 0.00 | 0.00 | 82 | 999.9 |
| 20260507181236 | 15 | 225 | 8.0 | 14.5 | 0.00 | 0.00 | 0.00 | 80 | 999.8 |
| 20260507180746 | 15 | 225 | 6.4 | 14.5 | 0.00 | 0.00 | 0.00 | 79 | 999.7 |
| 20260507180225 | 15 | 225 | 6.4 | 19.3 | 0.00 | 0.00 | 0.00 | 77 | 999.8 |
| 20260507175746 | 15 | 225 | 9.7 | 14.5 | 0.00 | 0.00 | 0.00 | 77 | 999.6 |
| 20260507175230 | 15 | 225 | 6.4 | 12.9 | 0.00 | 0.00 | 0.00 | 76 | 999.6 |
| 20260507174735 | 15 | 225 | 3.2 | 12.9 | 0.00 | 0.00 | 0.00 | 76 | 999.6 |
| 20260507174224 | 15 | 225 | 6.4 | 9.7 | 0.00 | 0.00 | 0.00 | 75 | 999.5 |
| 20260507173724 | 16 | 225 | 6.4 | 11.3 | 0.00 | 0.00 | 0.00 | 74 | 999.5 |
| 20260507173233 | 16 | 225 | 4.8 | 12.9 | 0.00 | 0.00 | 0.00 | 72 | 999.5 |
| 20260507172719 | 16 | 225 | 8.0 | 12.9 | 0.00 | 0.00 | 0.00 | 69 | 999.3 |
| 20260507172205 | 16 | 225 | 4.8 | 14.5 | 0.00 | 0.00 | 0.00 | 68 | 999.3 |
| 20260507171207 | 17 | 225 | 1.6 | 9.7 | 0.00 | 0.00 | 0.00 | 64 | 999.2 |
| 20260507170707 | 17 | 225 | 3.2 | 8.0 | 0.00 | 0.00 | 0.00 | 62 | 999.2 |
| 20260507170152 | 17 | 225 | 8.0 | 9.7 | 0.00 | 0.00 | 0.00 | 62 | 999.2 |
| 20260507165658 | 17 | 225 | 4.8 | 11.3 | 0.00 | 0.00 | 0.00 | 60 | 999.2 |
| 20260507165145 | 18 | 225 | 4.8 | 11.3 | 0.00 | 0.00 | 0.00 | 59 | 999.1 |
| 20260507164701 | 18 | 225 | 6.4 | 14.5 | 0.00 | 0.00 | 0.00 | 56 | 999.0 |
| 20260507164139 | 18 | 225 | 4.8 | 9.7 | 0.00 | 0.00 | 0.00 | 56 | 999.0 |
| 20260507163659 | 18 | 225 | 4.8 | 8.0 | 0.00 | 0.00 | 0.00 | 55 | 998.9 |
| 20260507163130 | 18 | 225 | 1.6 | 11.3 | 0.00 | 0.00 | 0.00 | 54 | 998.9 |
| 20260507162639 | 18 | 225 | 4.8 | 14.5 | 0.00 | 0.00 | 0.00 | 53 | 998.9 |
| 20260507162120 | 18 | 225 | 8.0 | 9.7 | 0.00 | 0.00 | 0.00 | 51 | 998.9 |
| 20260507161633 | 18 | 225 | 3.2 | 8.0 | 0.00 | 0.00 | 0.00 | 52 | 998.9 |
| 20260507161119 | 18 | 225 | 1.6 | 4.8 | 0.00 | 0.00 | 0.00 | 49 | 998.9 |
| 20260507160626 | 19 | 225 | 0.0 | 6.4 | 0.00 | 0.00 | 0.00 | 47 | 998.9 |
| 20260507160118 | 19 | 225 | 0.0 | 8.0 | 0.00 | 0.00 | 0.00 | 47 | 999.0 |
| 20260507155619 | 19 | 225 | 6.4 | 8.0 | 0.00 | 0.00 | 0.00 | 47 | 998.9 |
| 20260507155102 | 18 | 225 | 0.0 | 6.4 | 0.00 | 0.00 | 0.00 | 47 | 999.0 |
| 20260507154614 | 18 | 225 | 8.0 | 8.0 | 0.00 | 0.00 | 0.00 | 47 | 999.1 |
| 20260507154054 | 19 | 225 | 4.8 | 6.4 | 0.00 | 0.00 | 0.00 | 45 | 999.0 |
| 20260507153607 | 19 | 225 | 4.8 | 6.4 | 0.00 | 0.00 | 0.00 | 44 | 999.1 |
| 20260507153103 | 19 | 225 | 1.6 | 6.4 | 0.00 | 0.00 | 0.00 | 44 | 999.1 |
| 20260507152558 | 19 | 225 | 3.2 | 9.7 | 0.00 | 0.00 | 0.00 | 46 | 999.2 |
| 20260507152058 | 18 | 225 | 1.6 | 6.4 | 0.00 | 0.00 | 0.00 | 46 | 999.2 |
| 20260507151554 | 18 | 225 | 1.6 | 9.7 | 0.00 | 0.00 | 0.00 | 46 | 999.3 |
| 20260507151041 | 19 | 225 | 4.8 | 12.9 | 0.00 | 0.00 | 0.00 | 45 | 999.2 |
| 20260507150548 | 19 | 225 | 4.8 | 12.9 | 0.00 | 0.00 | 0.00 | 45 | 999.3 |
| 20260507150053 | 19 | 225 | 1.6 | 4.8 | 0.00 | 0.00 | 0.00 | 46 | 999.3 |
| 20260507145541 | 19 | 225 | 3.2 | 6.4 | 0.00 | 0.00 | 0.00 | 45 | 999.5 |
| 20260507145022 | 19 | 225 | 6.4 | 8.0 | 0.00 | 0.00 | 0.00 | 45 | 999.6 |
| 20260507144536 | 20 | 225 | 3.2 | 12.9 | 0.00 | 0.00 | 0.00 | 41 | 999.5 |
| 20260507144016 | 20 | 225 | 9.7 | 9.7 | 0.00 | 0.00 | 0.00 | 42 | 999.5 |
| 20260507143531 | 19 | 225 | 8.0 | 8.0 | 0.00 | 0.00 | 0.00 | 45 | 999.6 |
| 20260507143034 | 19 | 225 | 8.0 | 11.3 | 0.00 | 0.00 | 0.00 | 46 | 999.6 |
| 20260507142515 | 18 | 225 | 1.6 | 8.0 | 0.00 | 0.00 | 0.00 | 48 | 999.7 |
| 20260507142010 | 18 | 225 | 3.2 | 6.4 | 0.00 | 0.00 | 0.00 | 47 | 999.8 |
| 20260507141516 | 18 | 225 | 1.6 | 9.7 | 0.00 | 0.00 | 0.00 | 47 | 999.8 |
| 20260507141003 | 18 | 225 | 9.7 | 9.7 | 0.00 | 0.00 | 0.00 | 46 | 999.9 |
| 20260507140508 | 18 | 225 | 1.6 | 4.8 | 0.00 | 0.00 | 0.00 | 45 | 999.9 |
| 20260507140012 | 19 | 225 | 4.8 | 8.0 | 0.00 | 0.00 | 0.00 | 44 | 999.9 |
| 20260507135505 | 19 | 225 | 8.0 | 9.7 | 0.00 | 0.00 | 0.00 | 43 | 1000.0 |
| 20260507134943 | 20 | 225 | 3.2 | 9.7 | 0.00 | 0.00 | 0.00 | 42 | 1000.0 |
| 20260507134459 | 20 | 225 | 6.4 | 6.4 | 0.00 | 0.00 | 0.00 | 42 | 1000.0 |
| 20260507133937 | 19 | 225 | 6.4 | 8.0 | 0.00 | 0.00 | 0.00 | 44 | 1000.0 |
| 20260507133451 | 19 | 225 | 3.2 | 8.0 | 0.00 | 0.00 | 0.00 | 44 | 1000.0 |
| 20260507133006 | 20 | 225 | 1.6 | 11.3 | 0.00 | 0.00 | 0.00 | 43 | 1000.1 |
| 20260507131946 | 20 | 225 | 4.8 | 14.5 | 0.00 | 0.00 | 0.00 | 41 | 1000.0 |
| 20260507131448 | 20 | 225 | 1.6 | 8.0 | 0.00 | 0.00 | 0.00 | 42 | 1000.1 |
| 20260507130931 | 19 | 225 | 3.2 | 8.0 | 0.00 | 0.00 | 0.00 | 43 | 1000.1 |
| 20260507130432 | 19 | 225 | 3.2 | 6.4 | 0.00 | 0.00 | 0.00 | 45 | 1000.2 |
| 20260507125947 | 18 | 225 | 6.4 | 6.4 | 0.00 | 0.00 | 0.00 | 44 | 1000.1 |
| 20260507125427 | 19 | 337 | 3.2 | 6.4 | 0.00 | 0.00 | 0.00 | 43 | 1000.3 |
| 20260507124919 | 19 | 225 | 3.2 | 9.7 | 0.00 | 0.00 | 0.00 | 46 | 1000.3 |
| 20260507124432 | 18 | 225 | 1.6 | 4.8 | 0.00 | 0.00 | 0.00 | 48 | 1000.3 |
| 20260507123914 | 18 | 225 | 1.6 | 12.9 | 0.00 | 0.00 | 0.00 | 47 | 1000.6 |
| 20260507123412 | 18 | 337 | 3.2 | 8.0 | 0.00 | 0.00 | 0.00 | 49 | 1000.5 |